Weather in Nazimovo

Russia / Pskov Oblast     56°24′06″N   31°05′01″E
temp.,
°C
wind,
m/s
gust,
m/s
humid.,
%
clouds,
%
prec.,
mm/h
press.,
hPa
HPBL,
m
24 july, sat
sat2400:00+15nnw0069100 0.0 101211
03:00+12nnw227842 0.0 101335
06:00+13nnw127810 0.0 101483
09:00+18n23565 0.0 1015621
12:00+21n233673 0.0 10152299
15:00+21n233697 0.0 10152117
18:00+21n333910 0.0 10161164
21:00+15e227066 0.0 101728
25 july, sun
sun2500:00+15se2559100 0.0 1018103
03:00+15s1159100 0.0 101811
06:00+15sse2260100 0.0 101937
09:00+17sse2363100 0.0 1020212
12:00+24sse23425 0.0 10201514
15:00+23s4545100 0.0 1019654
18:00+23s355210 0.0 1019503
21:00+19se2367100 0.0 102061
26 july, mon
mon2600:00+19se385957 0.0 1021204
03:00+18s386196 0.0 1021198
06:00+15s24765 0.0 102291
09:00+22s24566 0.0 1022423
12:00+27ssw23415 0.0 10221619
15:00+28wsw233670 0.0 10212317
18:00+28ssw123717 0.0 10202159
21:00+21s236533 0.0 102156
27 july, tue
tue2700:00+19sse236875 0.0 102254
03:00+18s247728 0.0 102278
06:00+17s23835 0.0 102264
09:00+23s245711 0.0 1022447
12:00+28s334129 0.0 10211979
15:00+28sse344299 0.0 10191612
18:00+26ese255437 0.0 1019290
21:00+21se376868 0.0 1018120
28 july, wed
wed2800:00+18sse39725 0.0 1018161
03:00+19sse3107261 0.0 1016230
06:00+18sse3107598 0.0 1015268
09:00+22ssw4967100 0.1 1014634
12:00+26ssw4750100 0.1 10131425
15:00+23s51057100 0.1 10121389
18:00+17sse51391100 1.8 1011699
21:00+17se3109397 2.1 1008356